,,PA_Meas_PMT16A,,PR_Meas_QMR101_102,,RH_Meas_QMH101,,SR_Meas_QMS101,,TA_Meas_QMH101,,GenWind,,GenWind,
time,status,PA,status,PR,status,RH,status,SR,status,TA,status,DirAvg,status,SpdAvg,
2011-10-24, 00:00:04,VALID,916.26,VALID,0,VALID,91.9918,VALID,0,VALID,20.8324,VALID,89,VALID,2.24062,
2011-10-24, 00:01:04,VALID,916.187,VALID,0,VALID,91.9613,VALID,0,VALID,20.7918,VALID,98,VALID,1.16836,
2011-10-24, 00:02:04,VALID,916.175,VALID,0,VALID,91.9079,VALID,0,VALID,20.7934,VALID,118,VALID,2.14961,
2011-10-24, 00:03:04,VALID,916.177,VALID,0,VALID,91.9918,VALID,0,VALID,20.7739,VALID,107,VALID,1.9957,
2011-10-24, 00:04:04,VALID,916.198,VALID,0,VALID,92.1747,VALID,0,VALID,20.7544,VALID,88,VALID,0.925391,
2011-10-24, 00:05:04,VALID,916.188,VALID,0,VALID,92.3043,VALID,0,VALID,20.7349,VALID,122,VALID,1.17461,
2011-10-24, 00:06:04,VALID,916.16,VALID,0,VALID,92.2814,VALID,0,VALID,20.7349,VALID,117,VALID,1.97578,
2011-10-24, 00:07:04,VALID,916.1,VALID,0,VALID,92.4263,VALID,0.107441,VALID,20.7349,VALID,52,VALID,1.7832,
2011-10-24, 00:08:04,VALID,916.074,VALID,0.2,VALID,92.2814,VALID,0,VALID,20.6943,VALID,117,VALID,1.41406,
2011-10-24, 00:09:04,VALID,916.063,VALID,0,VALID,92.3119,VALID,0,VALID,20.7154,VALID,111,VALID,1.05156,
2011-10-24, 00:10:04,VALID,916.048,VALID,0,VALID,92.3424,VALID,0,VALID,20.6959,VALID,112,VALID,1.48789,
2011-10-24, 00:11:04,VALID,915.984,VALID,0,VALID,92.4568,VALID,0,VALID,20.6959,VALID,102,VALID,1.03359,
2011-10-24, 00:12:04,VALID,916,VALID,0,VALID,92.5406,VALID,0,VALID,20.6764,VALID,72,VALID,1.13984,
2011-10-24, 00:13:04,VALID,915.966,VALID,0,VALID,92.4339,VALID,0,VALID,20.6569,VALID,99,VALID,1.22305,
2011-10-24, 00:14:04,VALID,915.924,VALID,0,VALID,92.5635,VALID,0,VALID,20.6764,VALID,111,VALID,1.24492,
2011-10-24, 00:15:04,VALID,915.881,VALID,0,VALID,92.5788,VALID,0,VALID,20.6569,VALID,114,VALID,2.15742,
2011-10-24, 00:16:04,VALID,915.851,VALID,0,VALID,92.4797,VALID,0,VALID,20.6569,VALID,99,VALID,1.89102,
2011-10-24, 00:17:04,VALID,915.797,VALID,0,VALID,92.3806,VALID,0,VALID,20.6585,VALID,57,VALID,1.65703,
2011-10-24, 00:18:04,VALID,915.765,VALID,0,VALID,92.3806,VALID,0,VALID,20.6585,VALID,95,VALID,1.36055,
2011-10-24, 00:19:04,VALID,915.714,VALID,0,VALID,92.2128,VALID,0,VALID,20.6585,VALID,77,VALID,1.86406,
2011-10-24, 00:20:04,VALID,915.705,VALID,0,VALID,92.0604,VALID,0,VALID,20.678,VALID,88,VALID,1.25234,
2011-10-24, 00:21:04,VALID,915.717,VALID,0,VALID,91.9841,VALID,0,VALID,20.678,VALID,74,VALID,1.17109,
2011-10-24, 00:22:04,VALID,915.666,VALID,0,VALID,92.0832,VALID,0,VALID,20.678,VALID,74,VALID,0.491016,
2011-10-24, 00:23:04,VALID,915.703,VALID,0,VALID,92.0604,VALID,0,VALID,20.678,VALID,74,VALID,1.17266,
2011-10-24, 00:24:04,VALID,915.694,VALID,0,VALID,91.6868,VALID,0,VALID,20.6975,VALID,82,VALID,2.46016,
2011-10-24, 00:25:04,VALID,915.732,VALID,0,VALID,91.4505,VALID,0,VALID,20.7755,VALID,39,VALID,0.85,
2011-10-24, 00:26:04,VALID,915.74,VALID,0,VALID,91.5572,VALID,0,VALID,20.795,VALID,40,VALID,0.671875,
2011-10-24, 00:27:04,VALID,915.733,VALID,0,VALID,91.542,VALID,0,VALID,20.756,VALID,49,VALID,1.51523,
2011-10-24, 00:28:04,VALID,915.717,VALID,0,VALID,91.7859,VALID,0,VALID,20.7365,VALID,70,VALID,1.48086,
2011-10-24, 00:29:04,VALID,915.687,VALID,0,VALID,91.8317,VALID,0,VALID,20.6975,VALID,58,VALID,1.54531,
2011-10-24, 00:30:04,VALID,915.635,VALID,0,VALID,91.8469,VALID,0,VALID,20.6975,VALID,56,VALID,1.79492,
2011-10-24, 00:31:04,VALID,915.632,VALID,0,VALID,91.8164,VALID,0.107441,VALID,20.6959,VALID,56,VALID,1.10273,
2011-10-24, 00:32:04,VALID,915.619,VALID,0,VALID,91.8164,VALID,0,VALID,20.6764,VALID,56,VALID,1.18398,
2011-10-24, 00:33:04,VALID,915.645,VALID,0,VALID,91.8469,VALID,0,VALID,20.6569,VALID,56,VALID,1.41523,
2011-10-24, 00:34:04,VALID,915.644,VALID,0,VALID,91.9918,VALID,0,VALID,20.6374,VALID,92,VALID,1.07461,
2011-10-24, 00:35:04,VALID,915.64,VALID,0,VALID,91.9994,VALID,0,VALID,20.6179,VALID,150,VALID,0.975781,
2011-10-24, 00:36:04,VALID,915.673,VALID,0,VALID,92.251,VALID,0,VALID,20.5984,VALID,77,VALID,1.08555,
2011-10-24, 00:37:04,VALID,915.645,VALID,0,VALID,92.3424,VALID,0,VALID,20.5594,VALID,97,VALID,1.00195,
2011-10-24, 00:38:04,VALID,915.68,VALID,0,VALID,92.5025,VALID,0,VALID,20.5204,VALID,122,VALID,1.05195,
2011-10-24, 00:39:04,VALID,915.673,VALID,0,VALID,92.6779,VALID,0.107441,VALID,20.4798,VALID,122,VALID,1.16484,
2011-10-24, 00:40:04,VALID,915.585,VALID,0,VALID,92.8608,VALID,0,VALID,20.4813,VALID,122,VALID,0.713281,
2011-10-24, 00:41:04,VALID,915.598,VALID,0,VALID,93.0438,VALID,0.107441,VALID,20.4618,VALID,122,VALID,0.816406,
2011-10-24, 00:42:04,VALID,915.601,VALID,0,VALID,93.1734,VALID,0.107441,VALID,20.4618,VALID,177,VALID,0.773047,
2011-10-24, 00:43:04,VALID,915.595,VALID,0,VALID,93.2268,VALID,0,VALID,20.4423,VALID,138,VALID,0.676562,
2011-10-24, 00:44:04,VALID,915.6,VALID,0,VALID,93.3182,VALID,0,VALID,20.4423,VALID,153,VALID,1.49141,
2011-10-24, 00:45:04,VALID,915.577,VALID,0,VALID,93.3487,VALID,0,VALID,20.4423,VALID,168,VALID,0.988672,
2011-10-24, 00:46:04,VALID,915.537,VALID,0,VALID,93.4402,VALID,0,VALID,20.4228,VALID,168,VALID,0.665234,
2011-10-24, 00:47:04,VALID,915.547,VALID,0,VALID,93.5469,VALID,0.107441,VALID,20.4228,VALID,168,VALID,0.722266,
2011-10-24, 00:48:04,VALID,915.522,VALID,0,VALID,93.6308,VALID,0.107441,VALID,20.4228,VALID,168,VALID,0.216406,
2011-10-24, 00:49:04,VALID,915.495,VALID,0,VALID,93.5469,VALID,0.107441,VALID,20.4228,VALID,106,VALID,1.4207,
2011-10-24, 00:50:04,VALID,915.404,VALID,0,VALID,93.4097,VALID,0,VALID,20.4228,VALID,92,VALID,1.82422,
2011-10-24, 00:51:04,VALID,915.436,VALID,0,VALID,93.242,VALID,0.107441,VALID,20.4618,VALID,91,VALID,0.668359,
2011-10-24, 00:52:04,VALID,915.358,VALID,0,VALID,93.0819,VALID,0.107441,VALID,20.4618,VALID,147,VALID,1.82578,
2011-10-24, 00:53:04,VALID,915.347,VALID,0,VALID,92.8913,VALID,0,VALID,20.5219,VALID,156,VALID,1.35234,
2011-10-24, 00:54:04,VALID,915.324,VALID,0,VALID,92.5178,VALID,0.107441,VALID,20.5204,VALID,132,VALID,2.28516,
2011-10-24, 00:55:04,VALID,915.276,VALID,0,VALID,92.1595,VALID,0.107441,VALID,20.5789,VALID,172,VALID,1.01367,
2011-10-24, 00:56:04,VALID,915.329,VALID,0,VALID,91.7326,VALID,0,VALID,20.6163,VALID,125,VALID,2.68203,
2011-10-24, 00:57:04,VALID,915.321,VALID,0,VALID,91.5496,VALID,0,VALID,20.6764,VALID,88,VALID,1.6625,
2011-10-24, 00:58:04,VALID,915.314,VALID,0,VALID,90.5814,VALID,0,VALID,20.7934,VALID,127,VALID,1.77188,
2011-10-24, 00:59:04,VALID,915.313,VALID,0,VALID,90.2079,VALID,0,VALID,20.8129,VALID,90,VALID,1.84805,
2011-10-24, 01:00:04,VALID,915.322,VALID,0,VALID,90.1012,VALID,0.107441,VALID,20.8519,VALID,113,VALID,2.48125,
2011-10-24, 01:01:04,VALID,915.288,VALID,0,VALID,90.1316,VALID,0,VALID,20.8324,VALID,77,VALID,2.3793,
2011-10-24, 01:02:04,VALID,915.301,VALID,0,VALID,89.9716,VALID,0.107441,VALID,20.8714,VALID,127,VALID,1.62617,
2011-10-24, 01:03:04,VALID,915.297,VALID,0,VALID,89.8115,VALID,0,VALID,20.8714,VALID,95,VALID,2.18359,
2011-10-24, 01:04:04,VALID,915.249,VALID,0,VALID,89.2854,VALID,0.107441,VALID,20.9105,VALID,106,VALID,1.94492,
2011-10-24, 01:05:04,VALID,915.237,VALID,0,VALID,88.889,VALID,0,VALID,20.9901,VALID,174,VALID,2.0332,
2011-10-24, 01:06:04,VALID,915.237,VALID,0,VALID,89.1101,VALID,0.107441,VALID,20.9885,VALID,149,VALID,0.914453,
2011-10-24, 01:07:04,VALID,915.235,VALID,0,VALID,89.1635,VALID,0.107441,VALID,20.969,VALID,125,VALID,1.96289,
2011-10-24, 01:08:04,VALID,915.218,VALID,0,VALID,89.7047,VALID,0,VALID,20.93,VALID,63,VALID,1.91719,
2011-10-24, 01:09:04,VALID,915.179,VALID,0,VALID,89.4455,VALID,0.107441,VALID,20.9105,VALID,95,VALID,1.15547,
2011-10-24, 01:10:04,VALID,915.212,VALID,0,VALID,89.2626,VALID,0,VALID,20.93,VALID,136,VALID,1.37031,
2011-10-24, 01:11:04,VALID,915.246,VALID,0,VALID,89.255,VALID,0,VALID,20.8699,VALID,88,VALID,2.00781,
2011-10-24, 01:12:04,VALID,915.258,VALID,0,VALID,89.1101,VALID,0,VALID,20.9105,VALID,96,VALID,1.48125,
2011-10-24, 01:13:04,VALID,915.246,VALID,0,VALID,89.1559,VALID,0,VALID,20.93,VALID,118,VALID,1.27422,
2011-10-24, 01:14:04,VALID,915.248,VALID,0,VALID,89.3464,VALID,0.107441,VALID,20.93,VALID,90,VALID,0.716406,
2011-10-24, 01:15:04,VALID,915.257,VALID,0,VALID,89.8343,VALID,0,VALID,20.891,VALID,92,VALID,1.04336,
2011-10-24, 01:16:04,VALID,915.26,VALID,0,VALID,89.7276,VALID,0,VALID,20.8519,VALID,93,VALID,1.42891,
2011-10-24, 01:17:04,VALID,915.226,VALID,0,VALID,89.842,VALID,0,VALID,20.8324,VALID,43,VALID,1.29805,
2011-10-24, 01:18:04,VALID,915.182,VALID,0,VALID,88.9119,VALID,0,VALID,20.8714,VALID,129,VALID,2.71836,
2011-10-24, 01:19:04,VALID,915.182,VALID,0,VALID,88.9119,VALID,0,VALID,20.912,VALID,120,VALID,2.61133,
2011-10-24, 01:20:04,VALID,915.14,VALID,0,VALID,89.598,VALID,0,VALID,20.891,VALID,98,VALID,1.18945,
2011-10-24, 01:21:04,VALID,915.085,VALID,0,VALID,89.4608,VALID,0,VALID,20.8519,VALID,82,VALID,1.64883,
2011-10-24, 01:22:04,VALID,915.072,VALID,0,VALID,89.8267,VALID,0,VALID,20.8129,VALID,100,VALID,1.33477,
2011-10-24, 01:23:04,VALID,914.99,VALID,0,VALID,89.8191,VALID,0,VALID,20.7739,VALID,104,VALID,1.99141,
2011-10-24, 01:24:04,VALID,914.965,VALID,0,VALID,89.842,VALID,0,VALID,20.7739,VALID,76,VALID,1.975,
2011-10-24, 01:25:04,VALID,914.937,VALID,0,VALID,89.9258,VALID,0,VALID,20.7544,VALID,85,VALID,2.13359,
2011-10-24, 01:26:04,VALID,914.928,VALID,0,VALID,90.0249,VALID,0,VALID,20.7349,VALID,78,VALID,1.52695,
2011-10-24, 01:27:04,VALID,914.876,VALID,0,VALID,89.9258,VALID,0,VALID,20.7544,VALID,63,VALID,1.68203,
2011-10-24, 01:28:04,VALID,914.872,VALID,0,VALID,90.0478,VALID,0,VALID,20.7349,VALID,51,VALID,1.7125,
2011-10-24, 01:29:04,VALID,914.862,VALID,0,VALID,90.1316,VALID,0,VALID,20.7154,VALID,80,VALID,1.37031,
2011-10-24, 01:30:04,VALID,914.825,VALID,0,VALID,90.063,VALID,0,VALID,20.6959,VALID,76,VALID,2.08359,
2011-10-24, 01:31:04,VALID,914.841,VALID,0,VALID,90.3222,VALID,0,VALID,20.6764,VALID,70,VALID,1.02461,
2011-10-24, 01:32:04,VALID,914.804,VALID,0,VALID,90.2536,VALID,0,VALID,20.6569,VALID,88,VALID,2.12852,
2011-10-24, 01:33:04,VALID,914.816,VALID,0,VALID,90.4671,VALID,0,VALID,20.6358,VALID,100,VALID,1.0332,
2011-10-24, 01:34:04,VALID,914.827,VALID,0,VALID,90.2231,VALID,0.107441,VALID,20.6569,VALID,98,VALID,2.31172,
2011-10-24, 01:35:04,VALID,914.847,VALID,0,VALID,90.4595,VALID,0,VALID,20.6569,VALID,126,VALID,1.26523,
2011-10-24, 01:36:04,VALID,914.841,VALID,0,VALID,90.4747,VALID,0,VALID,20.6585,VALID,84,VALID,1.89492,
2011-10-24, 01:37:04,VALID,914.85,VALID,0,VALID,90.4671,VALID,0.107441,VALID,20.6569,VALID,81,VALID,1.96719,
2011-10-24, 01:38:04,VALID,914.876,VALID,0,VALID,90.5204,VALID,0,VALID,20.6764,VALID,85,VALID,0.790234,
2011-10-24, 01:39:04,VALID,914.862,VALID,0,VALID,90.5433,VALID,0.107441,VALID,20.6569,VALID,85,VALID,0.477344,
2011-10-24, 01:40:04,VALID,914.829,VALID,0,VALID,90.6043,VALID,0,VALID,20.6374,VALID,85,VALID,1.09453,
2011-10-24, 01:41:04,VALID,914.84,VALID,0,VALID,90.5433,VALID,0,VALID,20.6374,VALID,74,VALID,1.56758,
2011-10-24, 01:42:04,VALID,914.872,VALID,0,VALID,90.3756,VALID,0,VALID,20.6569,VALID,101,VALID,1.55703,
2011-10-24, 01:43:04,VALID,914.888,VALID,0,VALID,90.2765,VALID,0,VALID,20.6569,VALID,93,VALID,1.77422,
2011-10-24, 01:44:04,VALID,914.873,VALID,0,VALID,90.0554,VALID,0,VALID,20.6764,VALID,97,VALID,1.50234,
2011-10-24, 01:45:04,VALID,914.844,VALID,0,VALID,89.9792,VALID,0,VALID,20.7154,VALID,111,VALID,0.964844,
2011-10-24, 01:46:04,VALID,914.885,VALID,0,VALID,89.8496,VALID,0,VALID,20.7154,VALID,83,VALID,1.21719,
2011-10-24, 01:47:04,VALID,914.844,VALID,0,VALID,89.6285,VALID,0.107441,VALID,20.7349,VALID,99,VALID,1.0082,
2011-10-24, 01:48:04,VALID,914.856,VALID,0,VALID,89.7962,VALID,0,VALID,20.7755,VALID,132,VALID,0.614844,
2011-10-24, 01:49:04,VALID,914.828,VALID,0,VALID,90.0554,VALID,0,VALID,20.7349,VALID,101,VALID,1.53242,
2011-10-24, 01:50:04,VALID,914.83,VALID,0,VALID,89.9639,VALID,0,VALID,20.6959,VALID,121,VALID,1.78789,
2011-10-24, 01:51:04,VALID,914.837,VALID,0,VALID,90.0783,VALID,0,VALID,20.7154,VALID,111,VALID,1.07344,
2011-10-24, 01:52:04,VALID,914.803,VALID,0,VALID,90.307,VALID,0,VALID,20.6959,VALID,129,VALID,1.01484,
2011-10-24, 01:53:04,VALID,914.789,VALID,0,VALID,89.8267,VALID,0,VALID,20.717,VALID,128,VALID,1.71172,
2011-10-24, 01:54:04,VALID,914.823,VALID,0,VALID,89.476,VALID,0,VALID,20.8129,VALID,81,VALID,1.94883,
2011-10-24, 01:55:04,VALID,914.825,VALID,0,VALID,88.4926,VALID,0,VALID,20.891,VALID,90,VALID,2.79609,
2011-10-24, 01:56:04,VALID,914.837,VALID,0,VALID,88.3859,VALID,0,VALID,20.9495,VALID,110,VALID,2.36367,
2011-10-24, 01:57:04,VALID,914.803,VALID,0,VALID,88.7289,VALID,0,VALID,20.9511,VALID,100,VALID,1.59297,
2011-10-24, 01:58:04,VALID,914.815,VALID,0,VALID,88.8662,VALID,0,VALID,20.8925,VALID,109,VALID,1.70313,
2011-10-24, 01:59:04,VALID,914.781,VALID,0,VALID,89.0949,VALID,0,VALID,20.8925,VALID,100,VALID,1.58398,
2011-10-24, 02:00:04,VALID,914.771,VALID,0,VALID,89.2092,VALID,0,VALID,20.8324,VALID,109,VALID,1.02695,
2011-10-24, 02:01:04,VALID,914.8,VALID,0,VALID,88.9195,VALID,0,VALID,20.891,VALID,92,VALID,1.50156,
2011-10-24, 02:02:04,VALID,914.77,VALID,0,VALID,89.0263,VALID,0,VALID,20.8714,VALID,120,VALID,1.24727,
2011-10-24, 02:03:04,VALID,914.772,VALID,0,VALID,89.3998,VALID,0,VALID,20.8535,VALID,98,VALID,1.5793,
2011-10-24, 02:04:04,VALID,914.736,VALID,0,VALID,89.6742,VALID,0,VALID,20.7934,VALID,128,VALID,0.889844,
2011-10-24, 02:05:04,VALID,914.724,VALID,0,VALID,89.4074,VALID,0,VALID,20.7934,VALID,111,VALID,1.4793,
2011-10-24, 02:06:04,VALID,914.748,VALID,0,VALID,89.5523,VALID,0,VALID,20.7934,VALID,102,VALID,1.11016,
2011-10-24, 02:07:04,VALID,914.774,VALID,0,VALID,88.4621,VALID,0,VALID,20.8129,VALID,101,VALID,2.73008,
2011-10-24, 02:08:04,VALID,914.816,VALID,0,VALID,88.7442,VALID,0,VALID,20.9511,VALID,84,VALID,1.52539,
2011-10-24, 02:09:04,VALID,914.769,VALID,0,VALID,88.9653,VALID,0,VALID,20.9316,VALID,75,VALID,1.38633,
2011-10-24, 02:10:04,VALID,914.772,VALID,0,VALID,88.8052,VALID,0,VALID,20.891,VALID,93,VALID,1.56406,
2011-10-24, 02:11:04,VALID,914.75,VALID,0,VALID,88.9576,VALID,0,VALID,20.8925,VALID,102,VALID,1.00703,
2011-10-24, 02:12:04,VALID,914.773,VALID,0,VALID,89.3312,VALID,0,VALID,20.8324,VALID,134,VALID,0.998047,
2011-10-24, 02:13:04,VALID,914.784,VALID,0,VALID,89.3998,VALID,0,VALID,20.834,VALID,170,VALID,1.50273,
2011-10-24, 02:14:04,VALID,914.784,VALID,0,VALID,89.8725,VALID,0,VALID,20.834,VALID,117,VALID,1.09609,
2011-10-24, 02:15:04,VALID,914.766,VALID,0,VALID,89.8648,VALID,0,VALID,20.7739,VALID,117,VALID,0.917578,
2011-10-24, 02:16:04,VALID,914.789,VALID,0,VALID,89.0949,VALID,0,VALID,20.7918,VALID,89,VALID,1.49961,
2011-10-24, 02:17:04,VALID,914.793,VALID,0,VALID,88.7137,VALID,0.107441,VALID,20.9105,VALID,73,VALID,0.840625,
2011-10-24, 02:18:04,VALID,914.782,VALID,0,VALID,88.5765,VALID,0.107441,VALID,20.9495,VALID,91,VALID,1.30234,
2011-10-24, 02:19:04,VALID,914.74,VALID,0,VALID,88.0962,VALID,0.107441,VALID,20.9885,VALID,103,VALID,1.52461,
2011-10-24, 02:20:04,VALID,914.724,VALID,0,VALID,88.4774,VALID,0.107441,VALID,21.0275,VALID,74,VALID,0.993359,
2011-10-24, 02:21:04,VALID,914.656,VALID,0,VALID,86.8155,VALID,0,VALID,21.086,VALID,90,VALID,2.1625,
2011-10-24, 02:22:04,VALID,914.668,VALID,0,VALID,86.663,VALID,0,VALID,21.2031,VALID,120,VALID,1.48828,
2011-10-24, 02:23:04,VALID,914.644,VALID,0,VALID,86.7164,VALID,0,VALID,21.2031,VALID,108,VALID,1.41328,
2011-10-24, 02:24:04,VALID,914.638,VALID,0,VALID,87.128,VALID,0,VALID,21.2226,VALID,83,VALID,1.10391,
2011-10-24, 02:25:04,VALID,914.629,VALID,0,VALID,87.0289,VALID,0,VALID,21.1429,VALID,109,VALID,2.11953,
2011-10-24, 02:26:04,VALID,914.559,VALID,0,VALID,87.0747,VALID,0.107441,VALID,21.1429,VALID,128,VALID,0.460156,
2011-10-24, 02:27:04,VALID,914.648,VALID,0,VALID,87.5092,VALID,0,VALID,21.164,VALID,68,VALID,1.13086,
2011-10-24, 02:28:04,VALID,914.682,VALID,0,VALID,86.7011,VALID,0.107441,VALID,21.1429,VALID,131,VALID,1.37031,
2011-10-24, 02:29:04,VALID,914.703,VALID,0,VALID,86.3504,VALID,0,VALID,21.164,VALID,134,VALID,1.44727,
2011-10-24, 02:30:04,VALID,914.687,VALID,0,VALID,86.6554,VALID,0.107441,VALID,21.2031,VALID,135,VALID,1.15977,
2011-10-24, 02:31:04,VALID,914.775,VALID,0,VALID,87.2957,VALID,0.107441,VALID,21.1429,VALID,152,VALID,1.29609,
2011-10-24, 02:32:04,VALID,914.771,VALID,0,VALID,87.6235,VALID,0,VALID,21.1039,VALID,176,VALID,1.00469,
2011-10-24, 02:33:04,VALID,914.771,VALID,0,VALID,87.6998,VALID,0,VALID,21.0649,VALID,180,VALID,1.92031,
2011-10-24, 02:34:04,VALID,914.759,VALID,0,VALID,88.02,VALID,0,VALID,21.0665,VALID,190,VALID,0.632813,
2011-10-24, 02:35:04,VALID,914.782,VALID,0,VALID,88.1724,VALID,0,VALID,21.047,VALID,132,VALID,0.996875,
2011-10-24, 02:36:04,VALID,914.814,VALID,0,VALID,88.2639,VALID,0.107441,VALID,21.0064,VALID,170,VALID,0.548047,
2011-10-24, 02:37:04,VALID,914.813,VALID,0,VALID,87.9895,VALID,0.107441,VALID,21.0064,VALID,152,VALID,1.40313,
2011-10-24, 02:38:04,VALID,914.813,VALID,0,VALID,88.2487,VALID,0.107441,VALID,21.0275,VALID,136,VALID,1.5375,
2011-10-24, 02:39:04,VALID,914.852,VALID,0,VALID,88.3478,VALID,0,VALID,21.008,VALID,162,VALID,1.33086,
2011-10-24, 02:40:04,VALID,914.821,VALID,0,VALID,88.3325,VALID,0.107441,VALID,20.9869,VALID,132,VALID,1.24258,
2011-10-24, 02:41:04,VALID,914.83,VALID,0,VALID,88.302,VALID,0,VALID,21.008,VALID,139,VALID,1.02227,
2011-10-24, 02:42:04,VALID,914.827,VALID,0,VALID,87.9666,VALID,0,VALID,21.008,VALID,135,VALID,1.41289,
2011-10-24, 02:43:04,VALID,914.789,VALID,0,VALID,87.6388,VALID,0,VALID,21.0275,VALID,140,VALID,1.66875,
2011-10-24, 02:44:04,VALID,914.802,VALID,0,VALID,86.4877,VALID,0.107441,VALID,21.125,VALID,117,VALID,2.62969,
2011-10-24, 02:45:04,VALID,914.792,VALID,0,VALID,86.7468,VALID,0,VALID,21.2031,VALID,140,VALID,0.735547,
2011-10-24, 02:46:04,VALID,914.783,VALID,0,VALID,86.9069,VALID,0,VALID,21.1836,VALID,134,VALID,1.90664,
2011-10-24, 02:47:04,VALID,914.809,VALID,0,VALID,87.1966,VALID,0,VALID,21.1445,VALID,127,VALID,1.30039,
2011-10-24, 02:48:04,VALID,914.777,VALID,0,VALID,87.3643,VALID,0,VALID,21.125,VALID,142,VALID,0.947656,
2011-10-24, 02:49:04,VALID,914.809,VALID,0,VALID,87.5626,VALID,0,VALID,21.1055,VALID,121,VALID,1.54336,
2011-10-24, 02:50:04,VALID,914.796,VALID,0,VALID,87.4787,VALID,0,VALID,21.086,VALID,140,VALID,1.91484,
2011-10-24, 02:51:04,VALID,914.752,VALID,0,VALID,87.8827,VALID,0,VALID,21.086,VALID,100,VALID,1.35,
2011-10-24, 02:52:04,VALID,914.723,VALID,0,VALID,87.3796,VALID,0,VALID,21.1055,VALID,104,VALID,1.575,
2011-10-24, 02:53:04,VALID,914.714,VALID,0,VALID,87.2729,VALID,0,VALID,21.125,VALID,125,VALID,2.29492,
2011-10-24, 02:54:04,VALID,914.703,VALID,0,VALID,87.6083,VALID,0,VALID,21.1055,VALID,119,VALID,1.59336,
2011-10-24, 02:55:04,VALID,914.714,VALID,0,VALID,87.6922,VALID,0,VALID,21.0665,VALID,131,VALID,2.25312,
2011-10-24, 02:56:04,VALID,914.687,VALID,0,VALID,88.0123,VALID,0,VALID,21.008,VALID,120,VALID,1.82227,
2011-10-24, 02:57:04,VALID,914.661,VALID,0,VALID,87.8294,VALID,0,VALID,20.9674,VALID,126,VALID,2.52227,
2011-10-24, 02:58:04,VALID,914.663,VALID,0,VALID,88.0352,VALID,0,VALID,21.047,VALID,121,VALID,2.13398,
2011-10-24, 02:59:04,VALID,914.652,VALID,0,VALID,87.6617,VALID,0.107441,VALID,20.9869,VALID,110,VALID,3.26758,
2011-10-24, 03:00:04,VALID,914.606,VALID,0,VALID,87.8294,VALID,0.107441,VALID,21.0259,VALID,90,VALID,2.52227,
2011-10-24, 03:01:04,VALID,914.62,VALID,0,VALID,88.1267,VALID,0.107441,VALID,21.0275,VALID,100,VALID,1.91445,
2011-10-24, 03:02:04,VALID,914.635,VALID,0,VALID,88.4774,VALID,0.107441,VALID,20.9674,VALID,122,VALID,2.31172,
2011-10-24, 03:03:04,VALID,914.614,VALID,0,VALID,88.7747,VALID,0.107441,VALID,20.93,VALID,118,VALID,2.24023,
2011-10-24, 03:04:04,VALID,914.636,VALID,0,VALID,88.4316,VALID,0,VALID,20.891,VALID,116,VALID,2.79219,
2011-10-24, 03:05:04,VALID,914.604,VALID,0,VALID,88.4392,VALID,0.107441,VALID,20.9089,VALID,106,VALID,1.37227,
2011-10-24, 03:06:04,VALID,914.585,VALID,0,VALID,88.4088,VALID,0,VALID,20.9089,VALID,114,VALID,2.31406,
2011-10-24, 03:07:04,VALID,914.535,VALID,0,VALID,88.4011,VALID,0.107441,VALID,20.9089,VALID,124,VALID,2.57891,
2011-10-24, 03:08:04,VALID,914.53,VALID,0,VALID,88.8509,VALID,0,VALID,20.93,VALID,136,VALID,0.739062,
2011-10-24, 03:09:04,VALID,914.461,VALID,0,VALID,88.5917,VALID,0.107441,VALID,20.9105,VALID,149,VALID,1.53047,
2011-10-24, 03:10:04,VALID,914.468,VALID,0,VALID,88.7823,VALID,0,VALID,20.9105,VALID,108,VALID,1.51016,
2011-10-24, 03:11:04,VALID,914.459,VALID,0,VALID,89.0644,VALID,0,VALID,20.8714,VALID,123,VALID,1.57539,
2011-10-24, 03:12:04,VALID,914.415,VALID,0,VALID,89.0339,VALID,0,VALID,20.8324,VALID,109,VALID,1.94062,
2011-10-24, 03:13:04,VALID,914.381,VALID,0,VALID,89.1635,VALID,0.107441,VALID,20.8324,VALID,134,VALID,1.56523,
2011-10-24, 03:14:04,VALID,914.358,VALID,0,VALID,89.194,VALID,0,VALID,20.8324,VALID,128,VALID,1.86914,
2011-10-24, 03:15:04,VALID,914.338,VALID,0,VALID,89.0567,VALID,0,VALID,20.8519,VALID,145,VALID,1.60664,
2011-10-24, 03:16:04,VALID,914.311,VALID,0,VALID,89.0567,VALID,0,VALID,20.8535,VALID,117,VALID,1.35117,
2011-10-24, 03:17:04,VALID,914.302,VALID,0,VALID,88.7289,VALID,0,VALID,20.834,VALID,135,VALID,2.05039,
2011-10-24, 03:18:04,VALID,914.26,VALID,0,VALID,88.3097,VALID,0,VALID,20.912,VALID,109,VALID,2.21133,
2011-10-24, 03:19:04,VALID,914.221,VALID,0,VALID,88.4469,VALID,0,VALID,20.891,VALID,106,VALID,0.879297,
2011-10-24, 03:20:04,VALID,914.182,VALID,0,VALID,88.3859,VALID,0,VALID,20.912,VALID,146,VALID,1.79141,
2011-10-24, 03:21:04,VALID,914.125,VALID,0,VALID,88.4164,VALID,0,VALID,20.8925,VALID,138,VALID,1.5082,
2011-10-24, 03:22:04,VALID,914.113,VALID,0,VALID,88.5155,VALID,0,VALID,20.8925,VALID,117,VALID,1.15898,
2011-10-24, 03:23:04,VALID,914.073,VALID,0,VALID,88.7442,VALID,0,VALID,20.8714,VALID,74,VALID,1.14766,
2011-10-24, 03:24:04,VALID,914.113,VALID,0,VALID,88.9424,VALID,0,VALID,20.873,VALID,87,VALID,1.25273,
2011-10-24, 03:25:04,VALID,914.113,VALID,0,VALID,88.8128,VALID,0,VALID,20.8145,VALID,107,VALID,1.82617,
2011-10-24, 03:26:04,VALID,914.091,VALID,0,VALID,89.1635,VALID,0,VALID,20.8145,VALID,92,VALID,1.38672,
2011-10-24, 03:27:04,VALID,914.064,VALID,0,VALID,89.2397,VALID,0,VALID,20.756,VALID,115,VALID,1.79805,
2011-10-24, 03:28:04,VALID,914.059,VALID,0,VALID,89.1025,VALID,0,VALID,20.795,VALID,98,VALID,1.03164,
2011-10-24, 03:29:04,VALID,914.044,VALID,0,VALID,88.8814,VALID,0,VALID,20.795,VALID,152,VALID,2.02305,
2011-10-24, 03:30:04,VALID,914.042,VALID,0,VALID,88.828,VALID,0,VALID,20.834,VALID,115,VALID,2.24609,
2011-10-24, 03:31:04,VALID,914.05,VALID,0,VALID,89.2092,VALID,0,VALID,20.7934,VALID,132,VALID,1.70469,
2011-10-24, 03:32:04,VALID,914.054,VALID,0,VALID,89.3693,VALID,0,VALID,20.7544,VALID,104,VALID,1.67813,
2011-10-24, 03:33:04,VALID,914.019,VALID,0,VALID,89.6666,VALID,0,VALID,20.7349,VALID,114,VALID,1.48047,
2011-10-24, 03:34:04,VALID,914.024,VALID,0,VALID,89.7962,VALID,0,VALID,20.6764,VALID,125,VALID,1.81406,
2011-10-24, 03:35:04,VALID,913.983,VALID,0,VALID,89.6437,VALID,0,VALID,20.6959,VALID,134,VALID,2.06758,
2011-10-24, 03:36:04,VALID,913.968,VALID,0,VALID,89.598,VALID,0,VALID,20.7154,VALID,151,VALID,1.77109,
2011-10-24, 03:37:04,VALID,913.957,VALID,0,VALID,89.7581,VALID,0,VALID,20.7349,VALID,141,VALID,1.36211,
2011-10-24, 03:38:04,VALID,913.941,VALID,0,VALID,89.6437,VALID,0,VALID,20.7154,VALID,130,VALID,1.75586,
2011-10-24, 03:39:04,VALID,913.938,VALID,0,VALID,89.9106,VALID,0,VALID,20.7154,VALID,137,VALID,0.730859,
2011-10-24, 03:40:04,VALID,913.908,VALID,0,VALID,89.3464,VALID,0,VALID,20.756,VALID,127,VALID,1.53828,
2011-10-24, 03:41:04,VALID,913.903,VALID,0,VALID,89.3312,VALID,0,VALID,20.7544,VALID,156,VALID,1.1293,
2011-10-24, 03:42:04,VALID,913.893,VALID,0,VALID,89.2626,VALID,0,VALID,20.7739,VALID,161,VALID,1.43477,
2011-10-24, 03:43:04,VALID,913.885,VALID,0,VALID,88.9881,VALID,0,VALID,20.7934,VALID,140,VALID,1.07031,
2011-10-24, 03:44:04,VALID,913.875,VALID,0,VALID,88.6222,VALID,0,VALID,20.8535,VALID,149,VALID,1.37812,